Regional Weather Roundup
Issued by NWS

Home | Current Version | Previous Version | Text Only | Print | Product List | Glossary Off
Versions: 1 2 3 4 5 6 7 8 9 10 11 12 13 14 15 16 17 18 19 20 21 22 23 24 25 26 27 28 29 30 31 32 33 34 35 36 37 38 39 40 41 42 43 44 45 46 47 48 49 50

000
ASUS43 KMKX 011900
RWRWI

WISCONSIN REGIONAL WEATHER ROUNDUP
NATIONAL WEATHER SERVICE MILWAUKEE/SULLIVAN WI
200 PM CDT SAT OCT 01 2016

NOTE: "FAIR" INDICATES FEW OR NO CLOUDS BELOW 12,000 FEET WITH NO
SIGNIFICANT WEATHER AND/OR OBSTRUCTIONS TO VISIBILITY.

WIZ001-002-006>008-014>016-023>028-012000-
NORTHWEST WISCONSIN

CITY           SKY/WX    TMP DP  RH WIND       PRES   REMARKS
SUPERIOR ARPT  SUNNY     61  54  79 E9        30.18F
ASHLAND        PTSUNNY   65  56  72 NE10      30.16F
HAYWARD        MOSUNNY   68  52  56 N5        30.14F
SIREN          MOSUNNY   68  52  56 E9        30.14F
CUMBERLAND     CLOUDY    66  50  55 E7        30.13F
RICE LAKE      CLOUDY    69  51  52 NE5       30.14F
CHETEK         NOT AVBL
LADYSMITH      CLOUDY    65  51  60 N7        30.14F
EAU CLAIRE     NOT AVBL
MENOMONIE      MOSUNNY   72  50  45 NE7       30.11F
NEW RICHMOND   MOSUNNY   70  53  54 E6        30.12F
OSCEOLA        SUNNY     69  54  57 NE3       30.15F
$$

WIZ003>005-009-010-017-018-012000-
NORTH CENTRAL WISCONSIN

CITY           SKY/WX    TMP DP  RH WIND       PRES   REMARKS
MANITOWISH WTR NOT AVBL
ARBOR VITAE    CLOUDY    64  50  60 N6        30.13F
WOODRUFF       CLOUDY    64  50  60 N6        30.13F
RHINELANDER    CLOUDY    65  50  58 NE8       30.13F
EAGLE RIVER    CLOUDY    65  45  48 NE10      30.13F
LAND O LAKES   CLOUDY    64  50  62 NE6       30.16F
PHILLIPS       CLOUDY    65  53  65 N12       30.13F
TOMAHAWK       CLOUDY    63  48  59 NE5       30.13F
MEDFORD        CLOUDY    63  50  62 N8        30.11F
MERRILL        CLOUDY    65  49  55 NE10G17   30.12F
$$

WIZ029-030-035-036-043>047-012000-
CENTRAL WISCONSIN

CITY           SKY/WX    TMP DP  RH WIND       PRES   REMARKS
WAUSAU         CLOUDY    65  49  56 NE10G21   30.09F
MOSINEE        MOSUNNY   64  52  63 NE9       30.11F
MARSHFIELD     PTSUNNY   67  50  54 E8        30.09F
STEVENS POINT  CLOUDY    63  50  61 E8        30.10F
WAUPACA        CLOUDY    65  56  72 N6        30.09F
WAUTOMA        CLOUDY    64  55  72 N10G16    30.07F
WISC RAPIDS    CLOUDY    68  50  52 E15       30.09F
CAMP DOUGLAS   NOT AVBL
$$

WIZ011>013-019>022-031-037>040-048>050-012000-
NORTHEAST WISCONSIN

CITY           SKY/WX    TMP DP  RH WIND       PRES   REMARKS
ANTIGO         CLOUDY    62  51  68 NE14      30.13F
SHAWANO        RAIN      61  57  88 NE6       30.10F
OCONTO         NOT AVBL
STURGEON BAY   RAIN      59  57  93 NE8       30.08F
GREEN BAY      LGT RAIN  59  59 100 NE14G22   30.07F
MANITOWOC      NOT AVBL
APPLETON       CLOUDY    61  52  72 NE17      30.06F
CLINTONVILLE   RAIN      61  54  77 NE9       30.09F
OSHKOSH        CLOUDY    62  55  77 NE10      30.05F
$$

WIZ032>034-041-042-053>061-012000-
SOUTHWEST WISCONSIN

CITY           SKY/WX    TMP DP  RH WIND       PRES   REMARKS
LA CROSSE      CLOUDY    70  54  56 NE7       30.07F
SPARTA         CLOUDY    64  54  70 NE8       30.09F
VIROQUA        CLOUDY    63  55  77 NE5       30.08F
BOSCOBEL       CLOUDY    64  57  78 VRB3      30.06F
PRAIRIE DU CHI CLOUDY    62  55  76 N8        30.06S
PLATTEVILLE    CLOUDY    63  61  93 NE8       30.05F
$$

WIZ056-057-062-063-064-067-068-012000-
SOUTH CENTRAL WISCONSIN

CITY           SKY/WX    TMP DP  RH WIND       PRES   REMARKS
REEDSBURG      NOT AVBL
BARABOO/DELLS  CLOUDY    60  57  90 E7        30.06F
LONE ROCK      NOT AVBL
MINERAL POINT  CLOUDY    63  61  94 NE6       30.05F
MADISON        CLOUDY    61  58  90 NE8       30.03F
MIDDLETON      CLOUDY    62  61  99 NE8       30.05F
WATERTOWN      CLOUDY    59  59 100 N5        30.03F
MONROE         CLOUDY    63  57  82 N7        30.03F
JANESVILLE     CLOUDY    64  57  77 NE5       30.01F
$$

WIZ051-052-058>065-066-070>072-012000-
SOUTHEAST WISCONSIN

CITY           SKY/WX    TMP DP  RH WIND       PRES   REMARKS
MILWAUKEE      LGT RAIN  61  58  90 N10       30.01F FOG
WAUKESHA       DRIZZLE   57  57 100 N5        30.03F FOG
MILWAUKEE/TIMM FOG       59  55  88 N7        30.03F VSB 1
RACINE         LGT RAIN  60  58  92 N7        30.01F
BURLINGTON     RAIN      58  56  93 N5        30.01F
KENOSHA        LGT RAIN  60  59  96 N6        30.00F FOG
FOND DU LAC    LGT RAIN  60  57  89 NE10      30.05F FOG
SHEBOYGAN      LGT RAIN  60  57  89 NE12      30.04F FOG
WEST BEND      DRIZZLE   70  70 100 E10       30.03F
JUNEAU         DRIZZLE   58  57  97 NE6       30.05F
$$

LSZ147-162-012000-
LAKE SUPERIOR

STATION/POSITION TIME  TEMP    WIND        PRES    WAVE
                       AIR SEA DIR/SP/G            HT/PER
                 (UTC) (F)     (DEG/KT/KT) (MB)    (FT/S)
W MID LAKE BUOY  1750   57 56   40/  8/ 10 1022.2F   1/ 3
DEVILS ISLAND    1800   54      50/ 10/ 11 1022.7F
SAXON HARBOR     1800   56     340/  5/  6 1022.0
$$

LMZ867-665-643>646-012000-
LAKE MICHIGAN

STATION/POSITION TIME  TEMP    WIND        PRES    WAVE
                       AIR SEA DIR/SP/G            HT/PER
                 (UTC) (F)     (DEG/KT/KT) (MB)    (FT/S)
CHAMBERS ISLAND  1800   58      30/ 16/ 22 1019.3F
S GREEN BAY BUOY 1830   58 62   50/ 16/ 19 1018.3F
N MID LAKE BUOY  1750   60 64   90/ 16/ 19 1019.0F   4/ 5
NORTHPORT PIER   1800   60      80/ 11/ 16 1019.6F
SISTER BAY       1808   58     120/  7/ 11   N/A
KEWAUNEE LAKESHO 1800   61      50/  8/ 12 1017.9F
SHEBOYGAN LAKESH 1800   58      70/ 11/ 11 1017.4F
PORT WASHINGTON  1840   59      50/ 10/ 12 1017.6F
ATWATER BUOY     1800   59 59   10/ 10/ 12 1016.8F
MILWAUKEE LAKESH 1810   58      10/  8/ 10   N/A
S MID LAKE BUOY  1750   62 67   90/ 12/ 12 1015.6F   3/ 4
KENOSHA   LAKESH 1800   59     360/  9/ 10 1015.9F
$$

TC  - TEMPERATURE IN CELSIUS
VSB - VISIBILITY IN STATUTE MILES
WCI - WIND CHILL INDEX
HX  - HEAT INDEX





USA.gov is the U.S. government's official web portal to all federal, state and local government web resources and services.